Weather History for Damascus, Syria

Change the Weather History Date:

Saturday, January 5, 2013

  Actual Average Record
Temperature  
Mean Temperature 45 °F -  
Max Temperature 56 °F 55 °F 62 °F (1997)
Min Temperature 34 °F 33 °F 24 °F (2009)
Degree Days  
Heating Degree Days 20    
Moisture  
Dew Point 38 °F    
Average Humidity 76    
Maximum Humidity 93    
Minimum Humidity 37    
Precipitation  
Precipitation 0.04 in 0.04 in - ()
Sea Level Pressure  
Sea Level Pressure 29.88 in    
Wind  
Wind Speed 5 mph ()    
Max Wind Speed 28 mph    
Max Gust Speed -    
Visibility 5.6 miles    
Events Rain    
Averages and records for this station are not official NWS values.
T = Trace of Precipitation, MM = Missing Value Source: Averaged Metar Reports

Daily Weather History Graph

Daily Weather History Graph

Search for Another Location

Airport:

Trip Planner

Search our weather history database for the weather conditions in past years. The results will help you decide how hot, cold, wet, or windy it might be!

Date:

Astronomy

Jan. 05, 2013 Rise Set
Actual Time 6:38 AM EET 4:40 PM EET
Civil Twilight 6:11 AM EET 5:07 PM EET
Nautical Twilight 5:40 AM EET 5:38 PM EET
Astronomical Twilight 5:10 AM EET 6:08 PM EET
Moon No Moon Rise 11:08 AM EET (1/5)
Length of Visible Light 10h 56m
Length of Day
10h 01m
Waning Gibbous, 47% of the Moon is Illuminated
Jan 5
Waning Gibbous
Jan 11
New
Jan 19
First Quarter
Jan 27
Full
Feb 3
Last Quarter

Hourly Weather History & Observations

Time (EET) Temp. Windchill Dew Point Humidity Pressure Visibility Wind Dir Wind Speed Gust Speed Precip Events Conditions
12:00 AM 39.2 °F - 33.8 °F 81% 29.98 in - Calm Calm - N/A   Clear
1:00 AM 37.4 °F - 32.0 °F 81% 29.95 in - Calm Calm - N/A   Clear
2:00 AM 38 °F - 32 °F 73% 29.94 in 9 mi Calm Calm - -  
2:00 AM 37.4 °F - 32.0 °F 81% 29.95 in - Calm Calm - N/A   Clear
3:00 AM 37.4 °F - 33.8 °F 87% 29.92 in - North 2.3 mph - N/A   Clear
4:00 AM 37.4 °F - 35.6 °F 93% 29.92 in - Calm Calm - N/A   Clear
5:00 AM 37.4 °F - 35.6 °F 93% 29.89 in - Calm Calm - N/A   Clear
6:00 AM 35.6 °F - 33.8 °F 93% 29.92 in - Calm Calm - N/A   Clear
7:00 AM 35.6 °F - 28.4 °F 75% 29.92 in 2.5 mi Calm Calm - N/A   Mist
8:00 AM 38 °F - 33 °F 74% 29.93 in 1 mi Calm Calm - -   Mist
8:00 AM 37.4 °F - 32.0 °F 81% 29.92 in 1.2 mi Calm Calm - N/A   Scattered Clouds
9:00 AM 44.6 °F - 37.4 °F 76% 29.92 in 1.9 mi Calm Calm - N/A   Scattered Clouds
10:00 AM 53.6 °F - 46.4 °F 77% 29.89 in 2.5 mi SW 13.8 mph - N/A   Scattered Clouds
11:00 AM 57.2 °F - 51.8 °F 82% 29.89 in 6.2 mi WSW 9.2 mph - N/A   Scattered Clouds
12:00 PM 60.8 °F - 39.2 °F 45% 29.86 in 6.2 mi NW 4.6 mph - N/A   Scattered Clouds
1:00 PM 55.4 °F - 35.6 °F 47% 29.83 in 6.2 mi West 2.3 mph - N/A   Scattered Clouds
2:00 PM 56 °F - 37 °F 37% 29.81 in 9 mi West 24.6 mph - -   Mostly Cloudy
2:00 PM 57.2 °F - 37.4 °F 48% 29.83 in 6.2 mi West 25.3 mph - N/A   Mostly Cloudy
2:10 PM - - - N/A% 29.86 in 6.2 mi WNW 27.6 mph - N/A Rain Rain
3:00 PM 50.0 °F - 42.8 °F 76% 29.83 in 6.2 mi West 4.6 mph - N/A Rain Rain
4:00 PM 51.8 °F - 44.6 °F 76% 29.83 in 6.2 mi West 18.4 mph - N/A   Scattered Clouds
5:00 PM 50.0 °F - 44.6 °F 82% 29.86 in 6.2 mi West 6.9 mph - N/A Rain Rain
6:00 PM 48.2 °F - 41.0 °F 76% 29.86 in 6.2 mi West 9.2 mph - N/A   Scattered Clouds
7:00 PM 48.2 °F - 41.0 °F 76% 29.86 in 6.2 mi WSW 13.8 mph - N/A Rain Rain
8:00 PM 47 °F - 42 °F 76% 29.87 in 9 mi West 11.2 mph - -   Clear
8:00 PM 46.4 °F 41.1 °F 41.0 °F 81% 29.86 in 6.2 mi West 11.5 mph - N/A   Scattered Clouds
9:00 PM 46.4 °F 41.9 °F 42.8 °F 87% 29.86 in 6.2 mi SSW 9.2 mph - N/A   Scattered Clouds
10:00 PM 46.4 °F 41.9 °F 42.8 °F 87% 29.83 in 6.2 mi SSW 9.2 mph - N/A   Scattered Clouds
11:00 PM 48.2 °F - 44.6 °F 87% 29.83 in 6.2 mi SW 11.5 mph - N/A   Scattered Clouds